Regional Weather Roundup
Issued by NWS Newport/Morehead, NC

Current Version | Previous Version | Graphics & Text | Print | Product List | Glossary Off
Versions: 1 2 3 4 5 6 7 8 9 10 11 12 13 14 15 16 17 18 19 20 21 22 23 24 25 26 27 28 29 30 31 32 33 34 35 36 37 38 39 40 41 42 43 44 45 46 47 48 49 50

000
ASUS42 KMHX 261325
RWRMHX
WEATHER ROUNDUP FOR EASTERN NORTH CAROLINA
NATIONAL WEATHER SERVICE NEWPORT/MOREHEAD CITY NC
900 AM EDT SUN MAR 26 2017

NOTE: "FAIR" INDICATES FEW OR NO CLOUDS BELOW 12,000 FEET
WITH NO SIGNIFICANT WEATHER AND/OR OBSTRUCTIONS TO VISIBILITY

NCZ015>017-031-032-045>047-102-103-261400-
NORTH COAST

CITY           SKY/WX    TMP DP  RH WIND       PRES   REMARKS
EDENTON        CLOUDY    60  57  89 CALM      30.28R
ELIZABETH CITY CLOUDY    59  57  93 CALM      30.28R
KITTY HAWK     NOT AVBL
MANTEO         MOSUNNY   61  56  82 CALM      30.29S

$$

NCZ045>047-081-094-103-104-261400-
CENTRAL COAST

CITY           SKY/WX    TMP DP  RH WIND       PRES   REMARKS
FRISCO         CLOUDY    70  55  59 CALM      30.29R

$$

NCZ095-097-098-100-101-261400-
SOUTHERN COAST

CITY           SKY/WX    TMP DP  RH WIND       PRES   REMARKS
BEAUFORT       CLOUDY    68  58  70 CALM      30.27R
CEDAR ISLAND   NOT AVBL
JACKSONVILLE   CLOUDY    57  57 100 CALM      30.26R
PINEY ISLAND   MOSUNNY  N/A N/A N/A S5        30.27S
WILMINGTON     CLOUDY    65  56  72 SE3       30.25R


$$

NCZ011>013-027>030-043-044-078>080-089-090>093-098-261400-
COASTAL PLAIN

CITY           SKY/WX    TMP DP  RH WIND       PRES   REMARKS
AHOSKIE          N/A     55  54  96 CALM      30.27R
CLINTON        MOSUNNY   60  57  91 CALM      30.26R
ELIZABETHTOWN  MOSUNNY   58  58  98 CALM      30.24S
GOLDSBORO      PTSUNNY   59  59 100 SE3       30.24R
GREENVILLE     CLOUDY    61  55  82 CALM      30.27S
HAVELOCK       NOT AVBL
KENANSVILLE    PTSUNNY   59  55  88 SE5       30.26S
KINSTON        MOSUNNY   59  55  88 SE3       30.27S
NEW BERN       CLOUDY    61  59  93 CALM      30.27S
RICHLANDS      CLOUDY    59  57  93 CALM      30.27R
ROCKY MOUNT    CLOUDY    56  56 100 S3        30.26R
WASHINGTON     CLOUDY    59  56  90 CALM      30.27S
WHITEVILLE     PTSUNNY   60  57  92 CALM      30.23S

$$

AMZ130-135-150-152-154-156-158-170-250-252-270-ANZ085-086-088-633-658-670-261400-
MARINE OBSERVATIONS

STATION/POSITION TIME  TEMP    WIND        PRES    WAVE   SWELL
                       AIR SEA DIR/SP/G            HT/PER HT/PER
                 (UTC) (F)     (DEG/KT/KT) (MB)    (FT/S) (FT/S)
CHESAPEAKE LIGHT NOT AVBL
64 E VA BEACH    1250   55 49  270/  4/  4 1025.4    2/ 5   2/ 5
DUCK             1300   53 46  140/  7/  9 1025.0
2 E DUCK         1300      49                N/A     2/20
OREGON INLET     1300   64 58  170/  3/  4 1025.5
13E OREGON INLT  1248      50                N/A     2/ 8   2/ 8
HATTERAS CG      1300   66 58  120/  1/  2 1025.2
DIAMOND BUOY     1250   69 75  180/ 10/ 12 1025.8    3/ 8   2/ 8
CAPE LOOKOUT     1200   66      30/  3/  3 1024.6
BEAUFORT LAB     1300   66 55  110/  2/  3 1024.1
30 SE NEW RVR IN 1308   67     150/  6/  8 1024.8
30 SE NEW RVR IN 1313      64                N/A     3/10
27 SE WRIGHTSVLE 1308   68 64  110/  4/  8 1024.0
5 SE WRIGHTSVLE  1308   63 58  150/  8/ 10 1024.1
225 S CAPE HAT   1150   67 72   80/  6/ 12 1024.6    5/ 9   5/ 9
41 SE CHARLESTON 1150   71 73  160/ 10/ 14 1022.0    5/ 9   3/ 9

$$



USA.gov is the U.S. government's official web portal to all federal, state and local government web resources and services.